FW4218 Weather Reports


Display with metric or nautical units.
time (UTC)temp
F
wind
direction
speed
MPH
gust
MPH
rain 1hr
in
rain 24hr
in
rain mn
in
humidity
%
barometer
mb
20260510191833 72 102 16.0 25.0 0.00 0.00 0.00 30 1021.0
20260510190933 72 101 18.0 24.0 0.00 0.00 0.00 30 1021.1
20260510190033 72 105 15.0 25.0 0.00 0.00 0.00 31 1021.2
20260510185133 72 106 15.0 27.0 0.00 0.00 0.00 31 1021.3
20260510184446 72 112 15.0 23.0 0.00 0.00 0.00 31 1021.3
20260510183543 72 106 15.0 26.0 0.00 0.00 0.00 31 1021.4
20260510182433 71 115 15.0 26.0 0.00 0.00 0.00 32 1021.4
20260510181533 70 118 17.0 27.0 0.00 0.00 0.00 32 1021.3
20260510180845 71 115 17.0 25.0 0.00 0.00 0.00 32 1021.2
20260510175733 70 120 16.0 24.0 0.00 0.00 0.00 32 1021.2
20260510175045 71 109 16.0 24.0 0.00 0.00 0.00 32 1021.2
20260510173933 71 113 16.0 25.0 0.00 0.00 0.00 32 1021.1
20260510173033 70 111 15.0 24.0 0.00 0.00 0.00 31 1021.1
20260510172134 70 109 13.0 20.0 0.00 0.00 0.00 33 1021.1
20260510171234 69 116 14.0 21.0 0.00 0.00 0.00 34 1021.1
20260510170333 69 100 14.0 23.0 0.00 0.00 0.00 35 1021.2
20260510165434 69 103 15.0 24.0 0.00 0.00 0.00 35 1021.1
20260510164533 70 110 15.0 25.0 0.00 0.00 0.00 35 1021.1
20260510163844 69 106 16.0 25.0 0.00 0.00 0.00 35 1020.9
20260510162734 68 97 20.0 31.0 0.00 0.00 0.00 36 1020.9
20260510161833 69 110 14.0 27.0 0.00 0.00 0.00 35 1020.7
20260510161146 70 143 8.0 21.0 0.00 0.00 0.00 28 1020.6
20260510160034 69 109 8.0 16.0 0.00 0.00 0.00 29 1020.6
20260510155134 69 112 7.0 13.0 0.00 0.00 0.00 29 1020.6
20260510154233 69 109 7.0 11.0 0.00 0.00 0.00 29 1020.6
20260510153545 68 133 5.0 11.0 0.00 0.00 0.00 30 1020.6
20260510152648 68 135 4.0 9.0 0.00 0.00 0.00 31 1020.5
20260510151533 67 140 7.0 11.0 0.00 0.00 0.00 32 1020.3
20260510150633 66 134 8.0 13.0 0.00 0.00 0.00 33 1020.3
20260510145945 65 128 7.0 11.0 0.00 0.00 0.00 34 1020.3
20260510144833 65 116 8.0 13.0 0.00 0.00 0.00 34 1020.3
20260510143933 65 125 8.0 12.0 0.00 0.00 0.00 35 1020.2
20260510143034 64 131 6.0 12.0 0.00 0.00 0.00 36 1020.1
20260510142344 63 148 5.0 9.0 0.00 0.00 0.00 37 1020.1
20260510141233 62 142 6.0 9.0 0.00 0.00 0.00 39 1020.0
20260510140334 61 129 9.0 14.0 0.00 0.00 0.00 39 1019.8
20260510135434 61 126 11.0 17.0 0.00 0.00 0.00 39 1019.7
20260510134743 61 128 11.0 17.0 0.00 0.00 0.00 39 1019.6
20260510133633 61 126 12.0 21.0 0.00 0.00 0.00 38 1019.6
20260510132943 61 129 12.0 20.0 0.00 0.00 0.00 38 1019.5
20260510131833 60 130 13.0 19.0 0.00 0.00 0.00 39 1019.3
20260510130933 60 127 13.0 19.0 0.00 0.00 0.00 40 1019.2
20260510130033 60 115 15.0 24.0 0.00 0.00 0.00 39 1019.2
20260510125133 61 106 13.0 23.0 0.00 0.00 0.00 36 1019.2
20260510124233 61 109 11.0 17.0 0.00 0.00 0.00 34 1019.4
20260510123333 62 100 10.0 16.0 0.00 0.00 0.00 32 1019.6
20260510122433 63 88 10.0 17.0 0.00 0.00 0.00 31 1019.9
20260510121533 63 104 11.0 18.0 0.00 0.00 0.00 32 1019.6
20260510120633 64 160 6.0 12.0 0.00 0.00 0.00 31 1019.7
20260510115946 64 50 13.0 22.0 0.00 0.00 0.00 31 1019.8
20260510114834 64 350 16.0 26.0 0.00 0.00 0.00 31 1019.7
20260510113933 62 336 10.0 20.0 0.00 0.00 0.00 30 1019.4
20260510113033 60 314 7.0 11.0 0.00 0.00 0.00 29 1019.1
20260510112133 61 340 5.0 8.0 0.00 0.00 0.00 30 1018.8
20260510111233 62 346 5.0 8.0 0.00 0.00 0.00 28 1018.5
20260510110545 63 355 4.0 7.0 0.00 0.00 0.00 27 1018.4
20260510105433 62 22 7.0 12.0 0.00 0.00 0.00 27 1018.0
20260510104533 62 38 9.0 13.0 0.00 0.00 0.00 26 1017.9
20260510103633 63 347 5.0 11.0 0.00 0.00 0.00 26 1017.5
20260510102733 65 343 4.0 6.0 0.00 0.00 0.00 23 1017.4
20260510101833 66 326 8.0 15.0 0.00 0.00 0.00 24 1017.3
20260510101144 65 323 10.0 17.0 0.00 0.00 0.00 25 1017.3
20260510100247 64 346 12.0 19.0 0.00 0.00 0.00 24 1017.5
20260510095133 62 340 11.0 14.0 0.00 0.00 0.00 26 1017.4
20260510094233 61 347 8.0 11.0 0.00 0.00 0.00 27 1017.3
20260510093333 59 341 9.0 13.0 0.00 0.00 0.00 29 1017.1
20260510092646 58 338 8.0 11.0 0.00 0.00 0.00 29 1017.0
20260510091533 58 333 8.0 9.0 0.00 0.00 0.00 29 1016.7
20260510090633 58 330 6.0 8.0 0.00 0.00 0.00 29 1016.5
20260510084833 58 333 7.0 9.0 0.00 0.00 0.00 28 1016.2
20260510083933 57 330 8.0 11.0 0.00 0.00 0.00 28 1016.0
20260510083033 57 331 9.0 11.0 0.00 0.00 0.00 28 1015.9
20260510082133 57 349 7.0 10.0 0.00 0.00 0.00 29 1015.7
20260510081233 57 352 7.0 9.0 0.00 0.00 0.00 28 1015.7
20260510080333 57 342 9.0 11.0 0.00 0.00 0.00 29 1015.8
20260510075433 56 344 9.0 12.0 0.00 0.00 0.00 29 1015.9
20260510074533 55 342 9.0 12.0 0.00 0.00 0.00 29 1016.0
20260510073633 54 331 9.0 11.0 0.00 0.00 0.00 28 1015.9
20260510072733 54 353 8.0 10.0 0.00 0.00 0.00 28 1015.9
20260510071833 53 358 6.0 9.0 0.00 0.00 0.00 29 1015.9
20260510070933 52 8 5.0 6.0 0.00 0.00 0.00 29 1015.7
20260510070033 52 347 6.0 7.0 0.00 0.00 0.00 29 1015.8
20260510065133 53 318 6.0 7.0 0.00 0.00 0.00 28 1015.6
20260510064233 53 310 6.0 7.0 0.00 0.00 0.00 28 1015.5
20260510063333 54 289 6.0 8.0 0.00 0.00 0.00 27 1015.5
20260510062433 55 265 6.0 9.0 0.00 0.00 0.00 27 1015.4
20260510061533 56 248 6.0 8.0 0.00 0.00 0.00 28 1015.2
20260510060633 55 247 7.0 10.0 0.00 0.00 0.00 29 1015.2
20260510055733 53 240 6.0 8.0 0.00 0.00 0.00 30 1015.2
20260510054833 52 225 6.0 8.0 0.00 0.00 0.00 32 1015.0
20260510054145 51 220 6.0 8.0 0.00 0.00 0.00 31 1015.0
20260510053033 54 231 6.0 9.0 0.00 0.00 0.00 30 1014.9
20260510052133 56 228 5.0 8.0 0.00 0.00 0.00 27 1014.9
20260510051233 54 263 3.0 7.0 0.00 0.00 0.00 28 1014.8
20260510050333 55 290 7.0 8.0 0.00 0.00 0.00 26 1014.6
20260510045433 55 297 7.0 9.0 0.00 0.00 0.00 26 1014.6
20260510044533 56 295 7.0 9.0 0.00 0.00 0.00 26 1014.6
20260510043633 55 299 7.0 9.0 0.00 0.00 0.00 26 1014.6
20260510042944 56 303 7.0 8.0 0.00 0.00 0.00 24 1014.5
20260510041833 59 315 7.0 9.0 0.00 0.00 0.00 22 1014.4
20260510040933 61 329 8.0 11.0 0.00 0.00 0.00 22 1014.4
20260510040033 61 331 8.0 11.0 0.00 0.00 0.00 22 1014.4
20260510035133 60 333 8.0 11.0 0.00 0.00 0.00 23 1014.2
20260510034233 60 316 7.0 10.0 0.00 0.00 0.00 21 1014.2
20260510033333 61 317 8.0 11.0 0.00 0.00 0.00 20 1014.2
20260510032433 64 319 7.0 10.0 0.00 0.00 0.00 19 1013.9
20260510031533 66 325 9.0 11.0 0.00 0.00 0.00 18 1013.9
20260510030633 66 309 9.0 11.0 0.00 0.00 0.00 17 1013.9
20260510025733 66 314 7.0 11.0 0.00 0.00 0.00 18 1013.7
20260510024834 68 325 6.0 8.0 0.00 0.00 0.00 17 1013.5
20260510023933 69 336 7.0 8.0 0.00 0.00 0.00 17 1013.4
20260510023033 71 331 5.0 8.0 0.00 0.00 0.00 16 1013.3
20260510022133 73 326 5.0 9.0 0.00 0.00 0.00 15 1013.2
20260510021444 75 295 8.0 14.0 0.00 0.00 0.00 14 1013.1
20260510020333 74 254 6.0 9.0 0.00 0.00 0.00 14 1013.1
20260510015433 76 225 7.0 18.0 0.00 0.00 0.00 13 1013.0
20260510014533 75 258 10.0 22.0 0.00 0.00 0.00 13 1013.0
20260510013632 76 262 7.0 12.0 0.00 0.00 0.00 13 1013.1
20260510012733 77 266 12.0 32.0 0.00 0.00 0.00 12 1013.0
20260510011832 76 233 8.0 21.0 0.00 0.00 0.00 13 1012.8
20260510010933 76 252 5.0 8.0 0.00 0.00 0.00 14 1013.0
20260510010243 77 264 4.0 14.0 0.00 0.00 0.00 13 1012.8
20260510005345 77 307 9.0 23.0 0.00 0.00 0.00 12 1012.8
20260510004233 77 301 11.0 23.0 0.00 0.00 0.00 12 1012.7
20260510003333 78 313 11.0 18.0 0.00 0.00 0.00 11 1012.6
20260510002433 79 319 12.0 16.0 0.00 0.00 0.00 10 1012.7
20260510001533 79 322 11.0 17.0 0.00 0.00 0.00 10 1012.6
20260510000842 79 321 10.0 16.0 0.00 0.00 0.00 11 1012.6
20260509235733 79 327 13.0 18.0 0.00 0.00 0.00 10 1012.5
20260509234833 80 324 12.0 20.0 0.00 0.00 0.00 11 1012.5
20260509233933 79 304 7.0 11.0 0.00 0.00 0.00 11 1012.6
20260509233033 79 325 11.0 17.0 0.00 0.00 0.00 11 1012.7
20260509232133 80 326 12.0 18.0 0.00 0.00 0.00 11 1012.7
20260509231233 81 323 11.0 20.0 0.00 0.00 0.00 11 1012.7
20260509230543 82 330 12.0 21.0 0.00 0.00 0.00 11 1012.7
20260509225433 80 306 10.0 17.0 0.00 0.00 0.00 11 1012.8
20260509224533 82 318 12.0 18.0 0.00 0.00 0.00 11 1012.9
20260509223846 81 311 13.0 18.0 0.00 0.00 0.00 11 1013.0
20260509222733 81 308 17.0 26.0 0.00 0.00 0.00 11 1013.0
20260509222045 82 306 18.0 28.0 0.00 0.00 0.00 11 1013.2
20260509220933 83 326 11.0 22.0 0.00 0.00 0.00 11 1013.4
20260509220033 82 299 11.0 22.0 0.00 0.00 0.00 11 1013.3
20260509215133 82 319 11.0 19.0 0.00 0.00 0.00 11 1013.5
20260509214233 82 333 10.0 16.0 0.00 0.00 0.00 12 1013.6
20260509213333 82 319 15.0 28.0 0.00 0.00 0.00 11 1013.8
20260509212433 82 306 14.0 26.0 0.00 0.00 0.00 11 1014.0
20260509211533 83 298 15.0 26.0 0.00 0.00 0.00 11 1014.0
20260509210633 82 310 13.0 28.0 0.00 0.00 0.00 12 1014.1
20260509205733 81 325 13.0 25.0 0.00 0.00 0.00 12 1014.3
20260509204833 80 305 18.0 28.0 0.00 0.00 0.00 11 1014.7
20260509203933 81 318 17.0 28.0 0.00 0.00 0.00 11 1014.8
20260509203033 82 313 18.0 28.0 0.00 0.00 0.00 11 1014.9
20260509202133 81 285 15.0 27.0 0.00 0.00 0.00 12 1014.9
20260509201443 82 311 15.0 27.0 0.00 0.00 0.00 11 1015.1
20260509200334 81 309 17.0 26.0 0.00 0.00 0.00 12 1015.3
20260509195433 81 308 17.0 29.0 0.00 0.00 0.00 12 1015.3
20260509194534 82 304 16.0 26.0 0.00 0.00 0.00 12 1015.4
20260509193633 81 300 16.0 25.0 0.00 0.00 0.00 13 1015.5
20260509192733 81 308 16.0 27.0 0.00 0.00 0.00 12 1015.5